Location: Alkoven
(48.2833°N, 14.1000°E)
Time: 16:19:53
(UTC+00:00)

Daily predictions for brighter satellites

Satellite Brightness Start Highest point End
(mag) Time Altitude Azimuth Time Altitude Azimuth Time Altitude Azimuth
Cosmos 921 Rocket 3.7 15:41:39 10° N 15:45:30 31° ENE 15:49:23 10° SE
Nadezhda 4 Rocket 4.2 15:40:09 10° SSE 15:46:17 56° E 15:52:25 10° NNE
BREEZE-M R/B 3.4 15:39:42 10° W 15:46:57 75° N 15:50:31 10° E
Genesis I 3.1 15:44:13 10° NW 15:48:07 71° NE 15:51:57 10° SE
ATLAS 2AS CENTAUR R/B 3.9 15:41:45 10° W 15:49:16 41° NNW 15:56:41 10° NE
NOAA 6 4.3 15:45:23 10° S 15:50:31 78° WSW 15:55:40 10° NNW
ISS -0.3 15:50:44 10° WSW 15:52:21 13° SW 15:53:58 10° SSW
Cosmos 1666 3.0 15:50:44 10° N 15:54:17 40° ENE 15:57:49 10° SSE
Meteor 1-27 Rocket 3.8 15:48:59 10° S 15:54:43 69° E 16:00:36 10° NNE
Meteor 1-11 Rocket 4.0 15:48:48 10° NNW 15:54:49 87° W 16:00:45 10° S
NOSS 0 Rocket 4.0 15:48:41 10° SSW 15:54:55 89° WNW 16:01:13 10° NNE
Cosmos 1689 Rocket 2.4 15:53:43 10° N 15:56:45 69° WNW 15:59:43 10° SSW
COSMOS 2428 3.6 15:52:19 10° SW 15:57:46 47° NW 16:03:18 10° NNE
Cosmos 1867 3.8 15:58:10 10° NNW 16:03:28 48° NE 16:08:44 10° ESE
CZ-4B R/B 4.0 16:02:04 10° S 16:07:20 57° W 16:12:44 10° NNW
Cosmos 2026 Rocket 4.5 16:02:08 10° SSE 16:07:35 37° E 16:13:05 10° NNE
YAOGAN 6 4.0 16:05:32 10° ESE 16:08:03 18° ENE 16:10:36 10° NNE
STARLINK-60 3.1 16:04:41 10° WSW 16:08:04 79° NNW 16:10:52 14° ENE
IRS-1C Rocket 4.1 16:03:27 10° SSE 16:08:41 71° ENE 16:13:57 10° N
AQUARIUS 4.2 16:06:33 10° SSE 16:10:57 59° ENE 16:15:23 10° N
PSLV R/B 3.9 16:07:30 10° NNE 16:11:39 66° ESE 16:15:43 10° S
USA 215 3.4 16:07:17 11° ENE 16:13:42 71° SE 16:20:13 10° SW
Cosmos 2278 Rocket 3.8 16:09:05 10° NW 16:14:20 40° WSW 16:19:33 10° S
Cosmos 2360 Rocket 4.3 16:11:22 10° W 16:15:09 18° NW 16:18:57 10° N
STARLINK-52 3.2 16:11:48 10° WSW 16:15:18 77° SSE 16:17:57 17° ENE
Cosmos 1782 Rocket 3.8 16:12:34 10° N 16:16:45 43° ENE 16:20:53 10° SSE
Cosmos 1263 4.2 16:14:07 10° S 16:17:02 56° E 16:20:11 10° NNE
COBE Rocket 3.9 16:13:08 10° NNE 16:17:44 55° E 16:22:22 10° S
Helios 1A Rocket 4.5 16:15:58 10° S 16:19:49 39° W 16:23:40 10° NNW
STARLINK-67 3.4 16:17:18 10° WNW 16:19:53 34° NNE 16:21:15 21° ENE
STARLINK-29 3.1 16:19:53 10° WSW 16:23:25 88° NNW 16:25:47 20° ENE
Cosmos 614 Rocket 4.2 16:19:05 10° S 16:23:56 47° ESE 16:28:31 12° NE
Cosmos 2369 Rocket 2.9 16:19:19 10° NNW 16:24:21 32° NE 16:29:22 10° ESE
Cosmos 1862 Rocket 4.3 16:21:04 10° SSW 16:25:21 55° WNW 16:29:43 10° N
RESURS DK-1 4.5 16:23:32 10° W 16:26:44 21° NW 16:29:58 10° N
STARLINK-46 3.8 16:26:41 10° WNW 16:29:04 27° N 16:29:56 22° NE
Cosmos 1703 Rocket 3.6 16:24:43 10° S 16:29:08 62° E 16:33:35 10° NNE
SMAP 3.1 16:25:20 10° SSE 16:29:59 84° WSW 16:34:41 10° NNW
Okean 2 Rocket 3.9 16:27:16 10° N 16:31:14 30° ENE 16:35:13 10° SE
CORIOLIS 4.1 16:26:16 10° SSE 16:31:43 85° ENE 16:37:12 10° NNW
Cosmos 1743 2.9 16:28:08 10° N 16:31:54 47° ENE 16:35:39 10° SSE
SL-16 R/B 2.3 16:27:10 10° S 16:32:45 61° ESE 16:37:48 13° NE
Feng Yun 1-1 Rocket 4.3 16:28:29 10° SSE 16:33:52 80° WSW 16:39:20 10° NNW
Cosmos 1536 4.0 16:30:07 10° NNW 16:33:59 46° W 16:37:48 10° SSW
Sich 1 Rocket 3.6 16:32:15 10° N 16:36:35 53° ENE 16:40:52 10° SSE
Cosmos 1174 3.9 16:32:07 10° SSW 16:37:00 75° SE 16:39:39 21° NE
Cosmos 2221 Rocket 4.4 16:33:37 10° SSE 16:37:27 29° E 16:39:27 20° NE
CZ-4B R/B 4.3 16:35:38 10° NNW 16:37:47 16° WNW 16:39:53 10° W
Cosmos 2237 Rocket 2.9 16:34:52 10° SW 16:40:25 52° NW 16:46:00 10° NNE
FengYun 1-2 T 4.3 16:37:19 10° SE 16:42:38 54° ENE 16:48:01 10° N
Lacrosse 5 rocket 2.6 16:39:08 10° W 16:42:53 29° NNW 16:44:56 19° NNE
Cosmos 2344 4.5 16:35:24 10° NW 16:44:04 49° NNE 16:55:17 11° ESE
Cosmos 1627 Rocket 4.4 16:38:42 10° S 16:44:47 74° E 16:50:56 10° NNE
Cosmos 2195 Rocket 4.4 16:39:03 10° S 16:45:17 81° E 16:51:38 10° N
Cosmos 1943 Rocket 2.3 16:41:35 10° NNW 16:47:06 50° NE 16:52:32 10° SE
Cosmos 2219 Rocket 4.1 16:43:04 10° W 16:47:33 24° NW 16:52:04 10° N
SL-4 R/B 2.1 16:44:09 10° WNW 16:47:53 54° N 16:49:31 31° ENE
NOSS 3-1 (C) 4.2 16:41:24 10° NW 16:48:24 50° NE 16:55:30 14° ESE
Okean O Rocket 4.3 16:45:06 10° SW 16:48:25 21° W 16:51:46 10° NW
STARLINK-43 3.8 16:45:12 10° SW 16:48:45 45° SE 16:50:01 32° E
USA 267 3.4 16:42:15 10° SE 16:48:48 77° SW 16:55:23 10° NW
Cosmos 2333 Rocket 4.1 16:45:07 10° W 16:49:41 24° NW 16:54:17 10° N
Cosmos 1140 Rocket 3.6 16:45:18 10° S 16:50:16 53° ESE 16:53:37 20° NE
Abrixas rocket 3.6 16:48:33 10° SSW 16:50:58 22° SSE 16:51:18 22° SE
Okean 1 3.2 16:49:57 10° S 16:53:53 66° E 16:56:45 18° NNE
Envisat 2.9 16:50:02 10° SSE 16:55:07 88° ENE 17:00:15 10° NNW
Cosmos 1092 Rocket 4.3 16:51:58 10° SSW 16:58:15 71° WNW 17:04:30 10° N
Aureole 1 Rocket 3.6 16:55:28 10° SW 16:58:22 38° WNW 17:00:55 15° N
Okean 1-7 3.1 16:54:30 10° SSW 16:58:52 78° W 17:03:17 10° N
Cosmos 1023 Rocket 4.4 16:54:07 10° S 16:59:08 65° ESE 17:02:25 22° NNE
USA 229 DEB 3.9 16:52:20 10° NW 16:59:22 55° NE 17:04:59 18° ESE
USA 229 3.9 16:52:26 10° NW 16:59:28 55° NE 17:05:00 18° ESE
Cosmos 1655 Rocket 4.2 16:55:48 10° SSE 17:01:46 47° E 17:07:43 10° NNE
Meteor 2-4 Rocket 4.2 16:57:28 10° SSE 17:02:46 37° E 17:05:02 27° NE
CSL-04 Rocket 3.7 16:58:31 10° SE 17:03:37 52° ENE 17:08:46 10° N
Cosmos 405 Rocket 3.9 17:00:51 10° N 17:09:24 - SSE 17:02:41 25° NNE
Cosmos 407 Rocket 3.5 16:59:21 10° SSW 17:04:33 84° WNW 17:08:45 17° NNE
NOSS 3-1 (A) 4.3 16:57:49 10° NW 17:04:43 46° NE 17:09:00 26° E
COSMO-SKYMED 1 2.5 17:05:20 27° NNE 17:07:33 60° ESE 17:11:50 10° S
STARLINK-80 4.0 17:04:01 10° SSW 17:07:34 38° SE 17:07:55 38° SE
Cosmos 1300 Rocket 3.7 17:03:44 10° N 17:07:56 47° ENE 17:12:06 10° SSE
YAOGAN 1 2.5 17:07:56 10° SSE 17:12:11 58° ENE 17:16:27 10° N
CZ-4 R/B 1.1 17:09:30 10° SSE 17:13:21 74° ENE 17:17:12 10° N
Okean-O 3.3 17:09:18 10° S 17:13:38 55° W 17:18:01 10° NNW
Meteor 1-19 Rocket 4.0 17:09:25 10° S 17:14:51 67° E 17:18:57 18° NNE
FALCON 9 DEB 3.8 17:16:33 10° W 17:19:56 45° NNW 17:19:57 45° NNW
CSL-04 Debris 4.0 17:19:57 10° SSE 17:25:23 78° ENE 17:30:49 10° NNW
SeaSat 1 4.3 17:29:56 17° N 17:29:56 17° N 17:31:32 10° N
Cosmos 1975 3.2 17:24:01 10° NNW 17:28:00 63° W 17:31:57 10° S
Okean 3 3.2 17:25:43 10° S 17:29:51 75° E 17:29:51 75° E
Cosmos 2263 4.1 17:24:53 10° NNW 17:30:41 66° ENE 17:33:01 36° SE
S3M 3.9 17:25:22 10° N 17:31:36 87° E 17:37:44 10° S
Lacrosse 4 Rocket 3.7 17:30:34 10° N 17:31:11 13° N 17:31:11 13° N
Meteor 1-12 Rocket 4.1 17:30:20 10° N 17:36:15 80° ENE 17:41:59 10° SSE
Cosmos 2266 Rocket 4.0 17:30:59 10° S 17:37:15 60° E 17:40:17 31° NNE
Cosmos 1515 4.3 17:34:26 10° S 17:37:11 47° S 17:37:11 47° S
Ariane Rocket 4.3 17:40:51 26° N 17:40:51 26° N 17:43:10 10° N
Lacrosse 5 2.4 17:34:34 10° SSW 17:38:59 43° SSE 17:38:59 43° SSE
YAOGAN 6 4.1 17:37:58 10° SSW 17:41:18 37° W 17:44:42 10° NNW
Cosmos 1553 Rocket 4.5 17:35:54 10° NNW 17:42:12 63° W 17:48:31 10° S
ATLAS 2AS CENTAUR R/B 4.3 17:35:59 10° WNW 17:42:29 26° N 17:45:10 22° NNE
Cosmos 2151 Rocket 3.5 17:38:25 10° N 17:42:52 83° W 17:47:15 10° S
Cosmos 1763 Rocket 4.2 17:43:11 10° NNW 17:46:31 38° N 17:46:31 38° N
CZ-4C R/B 2.5 17:45:24 10° SSW 17:49:23 47° SSE 17:49:23 47° SSE
NOAA 11 4.2 17:46:54 10° SSE 17:52:23 82° WSW 17:57:54 10° NNW
USA 215 3.6 17:54:37 41° NNE 17:56:36 54° NNW 18:02:56 10° W
Cosmos 1943 3.4 17:52:04 10° SSW 17:56:43 55° SSE 17:56:43 55° SSE
IRS-1A Rocket 4.4 18:01:58 61° NNE 18:01:58 61° NNE 18:07:02 10° NNW
Meteor 1-13 Rocket 4.2 17:55:32 10° S 18:00:22 66° SSE 18:00:22 66° SSE
Cosmos 1656 Rocket 4.1 18:02:00 10° NNW 18:06:00 49° NNW 18:06:00 49° NNW
Cosmos 2369 Rocket 2.9 18:03:11 10° NW 18:08:38 52° WSW 18:13:17 14° S
SL-16 R/B 3.9 18:12:23 10° WSW 18:17:17 29° NW 18:19:41 21° N
Cosmos 2315 Rocket 3.9 18:12:09 10° N 18:18:30 87° W 18:18:41 84° SSW
Lacrosse 5 rocket 3.9 18:19:38 10° NW 18:20:34 15° NW 18:20:34 15° NW
Cosmos 1603 4.0 18:18:21 10° SW 18:23:46 65° WNW 18:23:46 65° WNW
SL-4 R/B 4.3 18:23:42 10° WNW 18:25:08 21° WNW 18:25:08 21° WNW
Cosmos 1943 Rocket 3.9 18:25:47 10° NW 18:30:35 30° WSW 18:35:21 10° SSW
NOSS 3-1 (A) 4.3 18:48:40 10° NW 18:56:07 65° SW 18:56:30 64° SW
